Location: Unspecified
(41.1637°N, 24.2901°E)
Time: 16:51:04
(UTC+01:00)

ISS - Pass Details

Date: 13 March 2026
Orbit: 417 x 426 km, 51.6° (Epoch: 16 March)

Event Time Altitude Azimuth Distance (km) Brightness Sun altitude
Rises 19:45:48 0° 271° (W) 2,377 1.2 -26.4°
Reaches altitude 10° 19:48:14 10° 287° (WNW) 1,512 0.1 -26.8°
Enters shadow 19:50:17 21° 323° (NW) 1,026 -1.2 -27.2°
